,,,PA_Meas_PMT16A,,PR_Meas_QMR101_102,,RH_Meas_QMH101,,SR_Meas_QMS101,,TA_Meas_QMH101,,GenWind,,GenWind,
date,time,status,PA,status,PR,status,RH,status,SR,status,TA,status,DirAvg,status,SpdAvg,
2009-10-26, 00:00:04,VALID,1000.67,VALID,0,VALID,88.8164,VALID,0,VALID,23.5646,VALID,81,VALID,0,
2009-10-26, 00:01:04,VALID,1000.6,VALID,0,VALID,88.8164,VALID,0,VALID,23.5451,VALID,81,VALID,0,
2009-10-26, 00:02:04,VALID,1000.56,VALID,0,VALID,89.0377,VALID,0,VALID,23.5451,VALID,81,VALID,0,
2009-10-26, 00:03:04,VALID,1000.55,VALID,0,VALID,88.9232,VALID,0,VALID,23.5256,VALID,81,VALID,0,
2009-10-26, 00:04:04,VALID,1000.5,VALID,0,VALID,89.1521,VALID,0,VALID,23.5061,VALID,76,VALID,0,
2009-10-26, 00:05:04,VALID,1000.49,VALID,0,VALID,89.4954,VALID,0,VALID,23.5256,VALID,95,VALID,0.544141,
2009-10-26, 00:06:04,VALID,1000.45,VALID,0,VALID,89.4878,VALID,0,VALID,23.5451,VALID,95,VALID,0.389844,
2009-10-26, 00:07:04,VALID,1000.44,VALID,0,VALID,89.4649,VALID,0,VALID,23.5451,VALID,95,VALID,0.189844,
2009-10-26, 00:08:04,VALID,1000.46,VALID,0,VALID,89.3505,VALID,0,VALID,23.5256,VALID,95,VALID,0,
2009-10-26, 00:09:04,VALID,1000.46,VALID,0,VALID,89.4115,VALID,0,VALID,23.5061,VALID,95,VALID,0,
2009-10-26, 00:10:04,VALID,1000.44,VALID,0,VALID,89.4344,VALID,0,VALID,23.4866,VALID,95,VALID,0,
2009-10-26, 00:11:04,VALID,1000.43,VALID,0,VALID,89.5031,VALID,0,VALID,23.4263,VALID,95,VALID,0,
2009-10-26, 00:12:04,VALID,1000.44,VALID,0,VALID,89.5565,VALID,0,VALID,23.4475,VALID,95,VALID,0,
2009-10-26, 00:13:04,VALID,1000.39,VALID,0,VALID,89.732,VALID,0,VALID,23.428,VALID,95,VALID,0.316406,
2009-10-26, 00:14:04,VALID,1000.37,VALID,0,VALID,89.8388,VALID,0,VALID,23.428,VALID,95,VALID,0.380859,
2009-10-26, 00:15:04,VALID,1000.35,VALID,0,VALID,89.854,VALID,0,VALID,23.428,VALID,94,VALID,0.460156,
2009-10-26, 00:16:04,VALID,1000.35,VALID,0,VALID,89.6862,VALID,0,VALID,23.4067,VALID,94,VALID,0.35625,
2009-10-26, 00:17:04,VALID,1000.32,VALID,0,VALID,89.8846,VALID,0,VALID,23.4085,VALID,94,VALID,0.362109,
2009-10-26, 00:18:04,VALID,1000.36,VALID,0,VALID,89.9761,VALID,0,VALID,23.389,VALID,94,VALID,0.278906,
2009-10-26, 00:19:04,VALID,1000.37,VALID,0,VALID,89.9685,VALID,0,VALID,23.3677,VALID,96,VALID,0.350391,
2009-10-26, 00:20:04,VALID,1000.34,VALID,0,VALID,90.0829,VALID,0,VALID,23.389,VALID,98,VALID,0.535547,
2009-10-26, 00:21:04,VALID,1000.32,VALID,0,VALID,90.2966,VALID,0,VALID,23.4085,VALID,119,VALID,0.717188,
2009-10-26, 00:22:04,VALID,1000.33,VALID,0,VALID,90.35,VALID,0.112286,VALID,23.4085,VALID,119,VALID,0.744141,
2009-10-26, 00:23:04,VALID,1000.3,VALID,0,VALID,90.3271,VALID,0,VALID,23.4067,VALID,119,VALID,0.739062,
2009-10-26, 00:24:04,VALID,1000.3,VALID,0,VALID,90.2431,VALID,0,VALID,23.4475,VALID,122,VALID,0.775,
2009-10-26, 00:25:04,VALID,1000.27,VALID,0,VALID,90.1516,VALID,0,VALID,23.428,VALID,122,VALID,0.606641,
2009-10-26, 00:26:04,VALID,1000.27,VALID,0,VALID,90.2355,VALID,0,VALID,23.4067,VALID,122,VALID,0.657422,
2009-10-26, 00:27:04,VALID,1000.25,VALID,0,VALID,90.1134,VALID,0,VALID,23.428,VALID,114,VALID,0.635156,
2009-10-26, 00:28:04,VALID,1000.24,VALID,0,VALID,90.1211,VALID,0,VALID,23.3872,VALID,112,VALID,0.555859,
2009-10-26, 00:29:04,VALID,1000.22,VALID,0,VALID,90.1363,VALID,0,VALID,23.3872,VALID,112,VALID,0.300781,
2009-10-26, 00:30:04,VALID,1000.24,VALID,0,VALID,90.1592,VALID,0,VALID,23.3908,VALID,112,VALID,0.389062,
2009-10-26, 00:31:04,VALID,1000.21,VALID,0,VALID,90.1897,VALID,0,VALID,23.4103,VALID,112,VALID,0.268359,
2009-10-26, 00:32:04,VALID,1000.19,VALID,0,VALID,90.1516,VALID,0,VALID,23.3908,VALID,112,VALID,0.253516,
2009-10-26, 00:33:04,VALID,1000.2,VALID,0,VALID,90.144,VALID,0,VALID,23.3908,VALID,112,VALID,0.136719,
2009-10-26, 00:34:04,VALID,1000.18,VALID,0,VALID,90.144,VALID,0,VALID,23.3908,VALID,112,VALID,0.346094,
2009-10-26, 00:35:04,VALID,1000.18,VALID,0,VALID,90.0371,VALID,0,VALID,23.3713,VALID,112,VALID,0,
2009-10-26, 00:36:04,VALID,1000.15,VALID,0,VALID,90.0143,VALID,0,VALID,23.35,VALID,128,VALID,0.288672,
2009-10-26, 00:37:04,VALID,1000.14,VALID,0,VALID,89.8006,VALID,0,VALID,23.35,VALID,128,VALID,0.130469,
2009-10-26, 00:38:04,VALID,1000.11,VALID,0,VALID,89.793,VALID,0,VALID,23.3518,VALID,128,VALID,0.147656,
2009-10-26, 00:39:04,VALID,1000.08,VALID,0,VALID,89.7625,VALID,0,VALID,23.3518,VALID,128,VALID,0.0472656,
2009-10-26, 00:40:04,VALID,1000.08,VALID,0,VALID,89.7625,VALID,0,VALID,23.3731,VALID,112,VALID,0.308984,
2009-10-26, 00:41:04,VALID,1000.06,VALID,0,VALID,89.7091,VALID,0,VALID,23.3323,VALID,107,VALID,0.430078,
2009-10-26, 00:42:04,VALID,1000.04,VALID,0,VALID,89.8846,VALID,0,VALID,23.3323,VALID,90,VALID,0.495703,
2009-10-26, 00:43:04,VALID,1000.06,VALID,0,VALID,89.854,VALID,0,VALID,23.3323,VALID,90,VALID,0.287109,
2009-10-26, 00:44:04,VALID,1000.06,VALID,0,VALID,89.7472,VALID,0,VALID,23.3731,VALID,98,VALID,0.771484,
2009-10-26, 00:45:04,VALID,1000.08,VALID,0,VALID,89.5336,VALID,0,VALID,23.389,VALID,108,VALID,0.471094,
2009-10-26, 00:46:04,VALID,1000.1,VALID,0,VALID,89.5717,VALID,0,VALID,23.389,VALID,109,VALID,0.307813,
2009-10-26, 00:47:04,VALID,1000.07,VALID,0,VALID,89.526,VALID,0,VALID,23.389,VALID,109,VALID,0.2875,
2009-10-26, 00:48:04,VALID,1000.07,VALID,0,VALID,89.5641,VALID,0,VALID,23.3695,VALID,109,VALID,0.426562,
2009-10-26, 00:49:04,VALID,1000.09,VALID,0,VALID,89.4573,VALID,0,VALID,23.389,VALID,109,VALID,0.444922,
2009-10-26, 00:50:04,VALID,1000.1,VALID,0,VALID,89.3428,VALID,0,VALID,23.389,VALID,130,VALID,0.508203,
2009-10-26, 00:51:04,VALID,1000.06,VALID,0,VALID,89.4039,VALID,0,VALID,23.4085,VALID,130,VALID,0.501953,
2009-10-26, 00:52:04,VALID,1000.11,VALID,0,VALID,89.2284,VALID,0,VALID,23.428,VALID,130,VALID,0.451562,
2009-10-26, 00:53:04,VALID,1000.12,VALID,0,VALID,89.1292,VALID,0,VALID,23.4475,VALID,130,VALID,0.557813,
2009-10-26, 00:54:04,VALID,1000.13,VALID,0,VALID,88.9614,VALID,0,VALID,23.4866,VALID,130,VALID,0.364844,
2009-10-26, 00:55:04,VALID,1000.1,VALID,0,VALID,88.763,VALID,0,VALID,23.5061,VALID,130,VALID,0.120312,
2009-10-26, 00:56:04,VALID,1000.1,VALID,0,VALID,88.6409,VALID,0,VALID,23.5061,VALID,130,VALID,0.212109,
2009-10-26, 00:57:04,VALID,1000.11,VALID,0,VALID,88.5646,VALID,0,VALID,23.5256,VALID,130,VALID,0.0917969,
2009-10-26, 00:58:04,VALID,1000.14,VALID,0,VALID,88.4197,VALID,0,VALID,23.5061,VALID,130,VALID,0.213672,
2009-10-26, 00:59:04,VALID,1000.15,VALID,0,VALID,88.3586,VALID,0,VALID,23.4866,VALID,130,VALID,0.24375,
2009-10-26, 01:00:04,VALID,1000.12,VALID,0,VALID,88.3815,VALID,0,VALID,23.4671,VALID,130,VALID,0.138672,
2009-10-26, 01:01:04,VALID,1000.15,VALID,0,VALID,88.3892,VALID,0,VALID,23.428,VALID,130,VALID,0.0886719,
2009-10-26, 01:02:04,VALID,1000.12,VALID,0,VALID,88.4044,VALID,0,VALID,23.3908,VALID,130,VALID,0.0601562,
2009-10-26, 01:03:04,VALID,1000.1,VALID,0,VALID,88.6486,VALID,0,VALID,23.3908,VALID,130,VALID,0.176953,
2009-10-26, 01:04:04,VALID,1000.13,VALID,0,VALID,88.7172,VALID,0,VALID,23.311,VALID,130,VALID,0.169922,
2009-10-26, 01:05:04,VALID,1000.09,VALID,0,VALID,88.9003,VALID,0,VALID,23.311,VALID,130,VALID,0.142969,
2009-10-26, 01:06:04,VALID,1000.12,VALID,0,VALID,89.0682,VALID,0,VALID,23.2915,VALID,130,VALID,0.115625,
2009-10-26, 01:07:04,VALID,1000.11,VALID,0,VALID,89.1979,VALID,0,VALID,23.2719,VALID,130,VALID,0.226172,
2009-10-26, 01:08:04,VALID,1000.11,VALID,0,VALID,89.2437,VALID,0,VALID,23.2915,VALID,130,VALID,0,
2009-10-26, 01:09:04,VALID,1000.1,VALID,0,VALID,89.32,VALID,0,VALID,23.2915,VALID,130,VALID,0,
2009-10-26, 01:10:04,VALID,1000.09,VALID,0,VALID,89.3352,VALID,0,VALID,23.311,VALID,130,VALID,0,
2009-10-26, 01:11:04,VALID,1000.09,VALID,0,VALID,89.3505,VALID,0,VALID,23.3305,VALID,130,VALID,0,
2009-10-26, 01:12:04,VALID,1000.1,VALID,0,VALID,89.3123,VALID,0,VALID,23.3518,VALID,130,VALID,0,
2009-10-26, 01:13:04,VALID,1000.06,VALID,0,VALID,88.8011,VALID,0,VALID,23.3695,VALID,162,VALID,1.11445,
2009-10-26, 01:14:04,VALID,1000.07,VALID,0,VALID,88.3586,VALID,0,VALID,23.3695,VALID,161,VALID,1.23906,
2009-10-26, 01:15:04,VALID,1000.05,VALID,0,VALID,88.0077,VALID,0,VALID,23.4671,VALID,170,VALID,1.24766,
2009-10-26, 01:16:04,VALID,1000.01,VALID,0,VALID,87.6567,VALID,0,VALID,23.5256,VALID,164,VALID,1.43711,
2009-10-26, 01:17:04,VALID,999.998,VALID,0,VALID,87.3592,VALID,0,VALID,23.5628,VALID,163,VALID,1.04648,
2009-10-26, 01:18:04,VALID,999.979,VALID,0,VALID,87.0463,VALID,0,VALID,23.6019,VALID,158,VALID,0.943359,
2009-10-26, 01:19:04,VALID,999.933,VALID,0,VALID,86.8022,VALID,0,VALID,23.6427,VALID,158,VALID,1.05508,
2009-10-26, 01:20:04,VALID,999.905,VALID,0,VALID,86.5504,VALID,0,VALID,23.6427,VALID,157,VALID,1.07461,
2009-10-26, 01:21:04,VALID,999.865,VALID,0,VALID,86.5351,VALID,0,VALID,23.6214,VALID,156,VALID,0.958594,
2009-10-26, 01:22:04,VALID,999.863,VALID,0,VALID,86.3215,VALID,0,VALID,23.5823,VALID,146,VALID,0.884375,
2009-10-26, 01:23:04,VALID,999.842,VALID,0,VALID,86.8327,VALID,0,VALID,23.5451,VALID,142,VALID,0.957031,
2009-10-26, 01:24:04,VALID,999.829,VALID,0,VALID,87.1379,VALID,0,VALID,23.4866,VALID,139,VALID,0.732422,
2009-10-26, 01:25:04,VALID,999.838,VALID,0,VALID,87.4126,VALID,0,VALID,23.4085,VALID,138,VALID,0.992188,
2009-10-26, 01:26:04,VALID,999.854,VALID,0,VALID,88.1068,VALID,0,VALID,23.3092,VALID,148,VALID,0.941406,
2009-10-26, 01:27:04,VALID,999.831,VALID,0,VALID,88.5799,VALID,0,VALID,23.2702,VALID,149,VALID,0.794531,
2009-10-26, 01:28:04,VALID,999.852,VALID,0,VALID,88.9614,VALID,0,VALID,23.2312,VALID,154,VALID,0.820313,
2009-10-26, 01:29:04,VALID,999.858,VALID,0,VALID,89.3963,VALID,0,VALID,23.2329,VALID,156,VALID,0.749219,
2009-10-26, 01:30:04,VALID,999.843,VALID,0,VALID,89.6175,VALID,0,VALID,23.2134,VALID,156,VALID,0.592188,
2009-10-26, 01:31:04,VALID,999.864,VALID,0,VALID,89.6175,VALID,0,VALID,23.2134,VALID,156,VALID,0.576563,
2009-10-26, 01:32:04,VALID,999.873,VALID,0,VALID,89.5565,VALID,0,VALID,23.1939,VALID,156,VALID,0.495703,
2009-10-26, 01:33:04,VALID,999.884,VALID,0,VALID,89.5717,VALID,0,VALID,23.1939,VALID,156,VALID,0.6,
2009-10-26, 01:34:04,VALID,999.893,VALID,0,VALID,89.5336,VALID,0,VALID,23.1531,VALID,156,VALID,0.467187,
2009-10-26, 01:35:04,VALID,999.859,VALID,0,VALID,89.5336,VALID,0,VALID,23.1744,VALID,156,VALID,0.337891,
2009-10-26, 01:36:04,VALID,999.87,VALID,0,VALID,89.3963,VALID,0,VALID,23.1354,VALID,156,VALID,0.114453,
2009-10-26, 01:37:04,VALID,999.861,VALID,0,VALID,89.587,VALID,0,VALID,23.0769,VALID,156,VALID,0.0683594,
2009-10-26, 01:38:04,VALID,999.843,VALID,0,VALID,89.7091,VALID,0,VALID,23.0769,VALID,156,VALID,0.101953,
2009-10-26, 01:39:04,VALID,999.846,VALID,0,VALID,89.7091,VALID,0,VALID,23.0378,VALID,156,VALID,0.169531,
2009-10-26, 01:40:04,VALID,999.851,VALID,0,VALID,89.8846,VALID,0,VALID,23.0378,VALID,156,VALID,0,
2009-10-26, 01:41:04,VALID,999.877,VALID,0,VALID,90.0448,VALID,0,VALID,22.9971,VALID,156,VALID,0.0148437,
2009-10-26, 01:42:04,VALID,999.885,VALID,0,VALID,90.144,VALID,0,VALID,22.9971,VALID,157,VALID,0.411328,
2009-10-26, 01:43:04,VALID,999.91,VALID,0,VALID,90.2431,VALID,0.112286,VALID,22.9971,VALID,186,VALID,0.387891,
2009-10-26, 01:44:04,VALID,999.93,VALID,0,VALID,90.3194,VALID,0,VALID,23.0378,VALID,186,VALID,0.475781,
2009-10-26, 01:45:04,VALID,999.955,VALID,0,VALID,90.2355,VALID,0,VALID,23.0573,VALID,186,VALID,0.324609,
2009-10-26, 01:46:04,VALID,999.966,VALID,0,VALID,90.2355,VALID,0,VALID,23.0378,VALID,186,VALID,0.360938,
2009-10-26, 01:47:04,VALID,999.958,VALID,0,VALID,89.8998,VALID,0,VALID,23.0183,VALID,186,VALID,0.323438,
2009-10-26, 01:48:04,VALID,999.955,VALID,0,VALID,90.0982,VALID,0,VALID,22.9793,VALID,186,VALID,0.337891,
2009-10-26, 01:49:04,VALID,999.961,VALID,0,VALID,90.2737,VALID,0,VALID,22.919,VALID,186,VALID,0.246094,
2009-10-26, 01:50:04,VALID,999.943,VALID,0,VALID,90.3347,VALID,0,VALID,22.9208,VALID,186,VALID,0.0738281,
2009-10-26, 01:51:04,VALID,999.923,VALID,0,VALID,90.0371,VALID,0.112286,VALID,22.88,VALID,186,VALID,0,
2009-10-26, 01:52:04,VALID,999.907,VALID,0,VALID,90.2737,VALID,0,VALID,22.8623,VALID,186,VALID,0.00859375,
2009-10-26, 01:53:04,VALID,999.898,VALID,0,VALID,90.411,VALID,0,VALID,22.8427,VALID,186,VALID,0.325781,
2009-10-26, 01:54:04,VALID,999.859,VALID,0,VALID,90.4263,VALID,0,VALID,22.802,VALID,186,VALID,0,
2009-10-26, 01:55:04,VALID,999.829,VALID,0,VALID,90.4415,VALID,0.112286,VALID,22.7647,VALID,186,VALID,0,
2009-10-26, 01:56:04,VALID,999.808,VALID,0,VALID,90.6094,VALID,0,VALID,22.7647,VALID,186,VALID,0.149219,
2009-10-26, 01:57:04,VALID,999.767,VALID,0,VALID,90.8383,VALID,0,VALID,22.7452,VALID,186,VALID,0.300391,
2009-10-26, 01:58:04,VALID,999.773,VALID,0,VALID,91.0137,VALID,0,VALID,22.763,VALID,150,VALID,0.925391,
2009-10-26, 01:59:04,VALID,999.718,VALID,0,VALID,90.9298,VALID,0,VALID,22.8215,VALID,150,VALID,1.01953,
2009-10-26, 02:00:04,VALID,999.734,VALID,0,VALID,90.2737,VALID,0,VALID,22.9385,VALID,143,VALID,1.03555,
2009-10-26, 02:01:04,VALID,999.707,VALID,0,VALID,89.4268,VALID,0.112286,VALID,23.0964,VALID,137,VALID,0.917188,
2009-10-26, 02:02:04,VALID,999.707,VALID,0,VALID,88.8774,VALID,0,VALID,23.1744,VALID,121,VALID,1.03828,
2009-10-26, 02:03:04,VALID,999.685,VALID,0,VALID,88.3281,VALID,0,VALID,23.2524,VALID,120,VALID,0.948828,
2009-10-26, 02:04:04,VALID,999.696,VALID,0,VALID,87.794,VALID,0.112286,VALID,23.2524,VALID,102,VALID,0.876172,
2009-10-26, 02:05:04,VALID,999.712,VALID,0,VALID,87.6262,VALID,0.112286,VALID,23.2117,VALID,89,VALID,0.980469,
2009-10-26, 02:06:04,VALID,999.719,VALID,0,VALID,88.0992,VALID,0,VALID,23.1354,VALID,75,VALID,1.0793,
2009-10-26, 02:07:04,VALID,999.72,VALID,0,VALID,88.5341,VALID,0,VALID,23.0573,VALID,57,VALID,1.12109,
2009-10-26, 02:08:04,VALID,999.702,VALID,0,VALID,88.908,VALID,0,VALID,22.9598,VALID,55,VALID,0.792188,
2009-10-26, 02:09:04,VALID,999.732,VALID,0,VALID,89.2208,VALID,0,VALID,22.8623,VALID,54,VALID,0.636719,
2009-10-26, 02:10:04,VALID,999.711,VALID,0,VALID,89.2894,VALID,0,VALID,22.763,VALID,33,VALID,0.517187,
2009-10-26, 02:11:04,VALID,999.7,VALID,0,VALID,89.4573,VALID,0,VALID,22.6655,VALID,33,VALID,0.408594,
2009-10-26, 02:12:04,VALID,999.685,VALID,0,VALID,89.7854,VALID,0,VALID,22.6069,VALID,33,VALID,0.374219,
2009-10-26, 02:13:04,VALID,999.665,VALID,0,VALID,90.0295,VALID,0,VALID,22.5892,VALID,33,VALID,0.290234,
2009-10-26, 02:14:04,VALID,999.69,VALID,0,VALID,90.1363,VALID,0,VALID,22.5501,VALID,33,VALID,0.0898438,
2009-10-26, 02:15:04,VALID,999.695,VALID,0,VALID,90.3194,VALID,0,VALID,22.4704,VALID,33,VALID,0.394922,
2009-10-26, 02:16:04,VALID,999.694,VALID,0,VALID,90.5483,VALID,0.112286,VALID,22.4721,VALID,33,VALID,0.339453,
2009-10-26, 02:17:04,VALID,999.716,VALID,0,VALID,90.7925,VALID,0.112286,VALID,22.4526,VALID,33,VALID,0.213281,
2009-10-26, 02:18:04,VALID,999.739,VALID,0,VALID,91.029,VALID,0,VALID,22.4331,VALID,33,VALID,0.255469,
2009-10-26, 02:19:04,VALID,999.745,VALID,0,VALID,91.2808,VALID,0,VALID,22.4331,VALID,33,VALID,0.507422,
2009-10-26, 02:20:04,VALID,999.716,VALID,0,VALID,91.5173,VALID,0,VALID,22.4331,VALID,29,VALID,0.669531,
2009-10-26, 02:21:04,VALID,999.703,VALID,0,VALID,91.5097,VALID,0,VALID,22.4119,VALID,27,VALID,0.876172,
2009-10-26, 02:22:04,VALID,999.681,VALID,0,VALID,91.8148,VALID,0,VALID,22.4136,VALID,26,VALID,0.876562,
2009-10-26, 02:23:04,VALID,999.659,VALID,0,VALID,91.9064,VALID,0,VALID,22.3924,VALID,25,VALID,0.911328,
2009-10-26, 02:24:04,VALID,999.632,VALID,0,VALID,92.1124,VALID,0,VALID,22.3924,VALID,24,VALID,0.901953,
2009-10-26, 02:25:04,VALID,999.644,VALID,0,VALID,92.204,VALID,0.112286,VALID,22.4119,VALID,24,VALID,0.735937,
2009-10-26, 02:26:04,VALID,999.641,VALID,0,VALID,92.2726,VALID,0.112286,VALID,22.4331,VALID,24,VALID,0.686328,
2009-10-26, 02:27:04,VALID,999.615,VALID,0,VALID,92.3337,VALID,0,VALID,22.3924,VALID,24,VALID,0.651563,
2009-10-26, 02:28:04,VALID,999.614,VALID,0,VALID,92.4786,VALID,0,VALID,22.4314,VALID,24,VALID,0.637891,
2009-10-26, 02:29:04,VALID,999.589,VALID,0,VALID,92.5778,VALID,0,VALID,22.4509,VALID,24,VALID,0.798828,
2009-10-26, 02:30:04,VALID,999.547,VALID,0,VALID,92.532,VALID,0,VALID,22.4916,VALID,24,VALID,0.772656,
2009-10-26, 02:31:04,VALID,999.56,VALID,0,VALID,92.5473,VALID,0,VALID,22.4933,VALID,24,VALID,0.678906,
2009-10-26, 02:32:04,VALID,999.527,VALID,0,VALID,92.5244,VALID,0,VALID,22.5128,VALID,25,VALID,0.681641,
2009-10-26, 02:33:04,VALID,999.532,VALID,0,VALID,92.5549,VALID,0,VALID,22.4916,VALID,34,VALID,0.68125,
2009-10-26, 02:34:04,VALID,999.521,VALID,0,VALID,92.6846,VALID,0,VALID,22.5323,VALID,36,VALID,0.611328,
2009-10-26, 02:35:04,VALID,999.521,VALID,0,VALID,92.7304,VALID,0,VALID,22.5501,VALID,36,VALID,0.525391,
2009-10-26, 02:36:04,VALID,999.507,VALID,0,VALID,92.7151,VALID,0,VALID,22.5909,VALID,36,VALID,0.474219,
2009-10-26, 02:37:04,VALID,999.519,VALID,0,VALID,92.7609,VALID,0,VALID,22.6104,VALID,36,VALID,0.563281,
2009-10-26, 02:38:04,VALID,999.544,VALID,0,VALID,92.7991,VALID,0,VALID,22.5892,VALID,36,VALID,0.48125,
2009-10-26, 02:39:04,VALID,999.544,VALID,0,VALID,92.7838,VALID,0,VALID,22.6282,VALID,36,VALID,0.501172,
2009-10-26, 02:40:04,VALID,999.537,VALID,0,VALID,92.7838,VALID,0,VALID,22.6282,VALID,36,VALID,0.38125,
2009-10-26, 02:41:04,VALID,999.565,VALID,0,VALID,92.7838,VALID,0,VALID,22.6689,VALID,36,VALID,0.311719,
2009-10-26, 02:42:04,VALID,999.53,VALID,0,VALID,92.8067,VALID,0,VALID,22.6672,VALID,36,VALID,0.4375,
2009-10-26, 02:43:04,VALID,999.521,VALID,0,VALID,92.7914,VALID,0,VALID,22.7062,VALID,36,VALID,0.494531,
2009-10-26, 02:44:04,VALID,999.504,VALID,0,VALID,92.7609,VALID,0,VALID,22.7062,VALID,36,VALID,0.482812,
2009-10-26, 02:45:04,VALID,999.517,VALID,0,VALID,92.7151,VALID,0,VALID,22.7274,VALID,36,VALID,0.456641,
2009-10-26, 02:46:04,VALID,999.53,VALID,0,VALID,92.616,VALID,0,VALID,22.7257,VALID,70,VALID,0.503906,
2009-10-26, 02:47:04,VALID,999.544,VALID,0,VALID,92.471,VALID,0,VALID,22.7469,VALID,85,VALID,0.213672,
2009-10-26, 02:48:04,VALID,999.56,VALID,0,VALID,92.3794,VALID,0,VALID,22.7469,VALID,85,VALID,0.0859375,
2009-10-26, 02:49:04,VALID,999.539,VALID,0,VALID,92.2803,VALID,0,VALID,22.7469,VALID,85,VALID,0.116406,
2009-10-26, 02:50:04,VALID,999.526,VALID,0,VALID,92.2345,VALID,0,VALID,22.7469,VALID,85,VALID,0.155078,
2009-10-26, 02:51:04,VALID,999.515,VALID,0,VALID,92.1582,VALID,0,VALID,22.7257,VALID,85,VALID,0.230859,
2009-10-26, 02:52:04,VALID,999.473,VALID,0,VALID,92.2574,VALID,0,VALID,22.7452,VALID,106,VALID,0.463281,
2009-10-26, 02:53:04,VALID,999.463,VALID,0,VALID,92.2345,VALID,0,VALID,22.786,VALID,106,VALID,0.525391,
2009-10-26, 02:54:04,VALID,999.449,VALID,0,VALID,92.2192,VALID,0,VALID,22.8055,VALID,122,VALID,0.798437,
2009-10-26, 02:55:04,VALID,999.427,VALID,0,VALID,92.1277,VALID,0,VALID,22.825,VALID,122,VALID,0.74375,
2009-10-26, 02:56:04,VALID,999.457,VALID,0,VALID,92.0666,VALID,0,VALID,22.8427,VALID,118,VALID,0.721875,
2009-10-26, 02:57:04,VALID,999.48,VALID,0,VALID,91.998,VALID,0,VALID,22.8835,VALID,102,VALID,0.645312,
2009-10-26, 02:58:04,VALID,999.497,VALID,0,VALID,92.0209,VALID,0,VALID,22.9013,VALID,84,VALID,0.623047,
2009-10-26, 02:59:04,VALID,999.478,VALID,0,VALID,91.8759,VALID,0,VALID,22.9615,VALID,79,VALID,0.585156,
2009-10-26, 03:00:04,VALID,999.481,VALID,0,VALID,91.6546,VALID,0,VALID,22.9615,VALID,62,VALID,0.521484,
2009-10-26, 03:01:04,VALID,999.495,VALID,0,VALID,91.5173,VALID,0,VALID,22.9793,VALID,61,VALID,0.45,
2009-10-26, 03:02:04,VALID,999.477,VALID,0,VALID,91.441,VALID,0,VALID,22.9793,VALID,61,VALID,0.465234,
2009-10-26, 03:03:04,VALID,999.484,VALID,0,VALID,91.3189,VALID,0,VALID,22.9793,VALID,61,VALID,0.232812,
2009-10-26, 03:04:04,VALID,999.498,VALID,0,VALID,91.2197,VALID,0,VALID,22.9615,VALID,61,VALID,0.164063,
2009-10-26, 03:05:04,VALID,999.497,VALID,0,VALID,91.0977,VALID,0,VALID,22.9403,VALID,61,VALID,0.0882813,
2009-10-26, 03:06:04,VALID,999.499,VALID,0,VALID,91.1816,VALID,0,VALID,22.9208,VALID,61,VALID,0,
2009-10-26, 03:07:04,VALID,999.549,VALID,0,VALID,91.3113,VALID,0,VALID,22.9013,VALID,61,VALID,0.0847656,
2009-10-26, 03:08:04,VALID,999.521,VALID,0,VALID,91.3876,VALID,0,VALID,22.9013,VALID,61,VALID,0.194922,
2009-10-26, 03:09:04,VALID,999.551,VALID,0,VALID,91.3723,VALID,0,VALID,22.9013,VALID,61,VALID,0.0695312,
2009-10-26, 03:10:04,VALID,999.518,VALID,0,VALID,91.4181,VALID,0,VALID,22.9013,VALID,61,VALID,0.0683594,
2009-10-26, 03:11:04,VALID,999.554,VALID,0,VALID,91.3952,VALID,0,VALID,22.8818,VALID,61,VALID,0.114844,
2009-10-26, 03:12:04,VALID,999.547,VALID,0,VALID,91.2121,VALID,0,VALID,22.8623,VALID,42,VALID,0.387891,
2009-10-26, 03:13:04,VALID,999.549,VALID,0,VALID,91.2121,VALID,0,VALID,22.8427,VALID,18,VALID,0.410547,
2009-10-26, 03:14:04,VALID,999.543,VALID,0,VALID,91.5631,VALID,0,VALID,22.864,VALID,18,VALID,0.391797,
2009-10-26, 03:15:04,VALID,999.558,VALID,0,VALID,91.6851,VALID,0,VALID,22.8427,VALID,18,VALID,0.205859,
2009-10-26, 03:16:04,VALID,999.564,VALID,0,VALID,91.6851,VALID,0,VALID,22.8623,VALID,18,VALID,0.305078,
2009-10-26, 03:17:04,VALID,999.54,VALID,0,VALID,91.2884,VALID,0,VALID,22.8427,VALID,19,VALID,0.348828,
2009-10-26, 03:18:04,VALID,999.574,VALID,0,VALID,91.4334,VALID,0,VALID,22.8232,VALID,19,VALID,0.146484,
2009-10-26, 03:19:04,VALID,999.574,VALID,0,VALID,91.3647,VALID,0,VALID,22.8037,VALID,19,VALID,0.0882813,
2009-10-26, 03:20:04,VALID,999.608,VALID,0,VALID,91.5631,VALID,0,VALID,22.8055,VALID,19,VALID,0.55625,
2009-10-26, 03:21:04,VALID,999.624,VALID,0,VALID,91.6317,VALID,0,VALID,22.8055,VALID,19,VALID,0.53125,
2009-10-26, 03:22:04,VALID,999.642,VALID,0,VALID,91.586,VALID,0,VALID,22.7664,VALID,3,VALID,0.672656,
2009-10-26, 03:23:04,VALID,999.63,VALID,0,VALID,91.6928,VALID,0,VALID,22.7452,VALID,353,VALID,0.666406,
2009-10-26, 03:24:04,VALID,999.592,VALID,0,VALID,91.853,VALID,0,VALID,22.7452,VALID,353,VALID,0.528906,
2009-10-26, 03:25:04,VALID,999.625,VALID,0,VALID,91.8759,VALID,0,VALID,22.7452,VALID,353,VALID,0.333203,
2009-10-26, 03:26:04,VALID,999.581,VALID,0,VALID,91.914,VALID,0,VALID,22.7469,VALID,353,VALID,0.153516,
2009-10-26, 03:27:04,VALID,999.569,VALID,0,VALID,91.9293,VALID,0,VALID,22.7062,VALID,353,VALID,0,
2009-10-26, 03:28:04,VALID,999.563,VALID,0,VALID,91.9217,VALID,0,VALID,22.6867,VALID,353,VALID,0,
2009-10-26, 03:29:04,VALID,999.551,VALID,0,VALID,91.9522,VALID,0,VALID,22.6867,VALID,353,VALID,0,
2009-10-26, 03:30:04,VALID,999.56,VALID,0,VALID,91.998,VALID,0,VALID,22.6672,VALID,353,VALID,0,
2009-10-26, 03:31:04,VALID,999.54,VALID,0,VALID,92.0132,VALID,0,VALID,22.6672,VALID,353,VALID,0,
2009-10-26, 03:32:04,VALID,999.573,VALID,0,VALID,92.1048,VALID,0,VALID,22.6672,VALID,353,VALID,0,
2009-10-26, 03:33:04,VALID,999.578,VALID,0,VALID,92.12,VALID,0,VALID,22.6672,VALID,353,VALID,0,
2009-10-26, 03:34:04,VALID,999.588,VALID,0,VALID,92.1734,VALID,0,VALID,22.6884,VALID,353,VALID,0,
2009-10-26, 03:35:04,VALID,999.632,VALID,0,VALID,92.2268,VALID,0,VALID,22.7062,VALID,353,VALID,0,
2009-10-26, 03:36:04,VALID,999.588,VALID,0,VALID,92.2192,VALID,0,VALID,22.7257,VALID,353,VALID,0,
2009-10-26, 03:37:04,VALID,999.598,VALID,0,VALID,92.204,VALID,0,VALID,22.7452,VALID,353,VALID,0,
2009-10-26, 03:38:04,VALID,999.581,VALID,0,VALID,92.1124,VALID,0,VALID,22.7452,VALID,353,VALID,0,
2009-10-26, 03:39:04,VALID,999.571,VALID,0,VALID,92.0361,VALID,0,VALID,22.7452,VALID,353,VALID,0,
2009-10-26, 03:40:04,VALID,999.554,VALID,0,VALID,92.0132,VALID,0,VALID,22.7257,VALID,353,VALID,0,
2009-10-26, 03:41:04,VALID,999.54,VALID,0,VALID,92.0132,VALID,0,VALID,22.7257,VALID,353,VALID,0,
2009-10-26, 03:42:04,VALID,999.524,VALID,0,VALID,92.059,VALID,0,VALID,22.7469,VALID,353,VALID,0.303516,
2009-10-26, 03:43:04,VALID,999.523,VALID,0,VALID,92.0895,VALID,0,VALID,22.786,VALID,353,VALID,0.307031,
2009-10-26, 03:44:04,VALID,999.526,VALID,0,VALID,91.9674,VALID,0,VALID,22.7842,VALID,65,VALID,0.477344,
2009-10-26, 03:45:04,VALID,999.51,VALID,0,VALID,91.7767,VALID,0,VALID,22.8232,VALID,142,VALID,0.988281,
2009-10-26, 03:46:04,VALID,999.477,VALID,0,VALID,91.2121,VALID,0,VALID,22.9225,VALID,142,VALID,0.742188,
2009-10-26, 03:47:04,VALID,999.469,VALID,0,VALID,90.4034,VALID,0,VALID,22.9988,VALID,142,VALID,0.875781,